C/2011 F1 ( LINEAR )

Japanese version
Home page
Updated on April 29, 2013

---------------------------------------------------------------------

* Profile

Discovery Date March 17, 2011
Magnitude 18.3 mag
Discoverer Lincoln Laboratory Near-Earth Asteroid Research project

* Pictures

* Orbital Elements

Epoch 2013 Jan. 28.0 TT = JDT 2456320.5
T 2013 Jan. 8.00389 TT                                  MPC
q   1.8191723            (2000.0)            P               Q
z  +0.0000507      Peri.  192.54441     +0.03596522     +0.55370195
                   Node    85.11504     -0.82952700     +0.48078620
e   0.9999078      Incl.   56.61279     -0.55730734     -0.67989616
From 4382 observations 2011 Mar. 17-2013 Apr. 2, mean residual 0".5.
     Nongravitational parameters A1 = +10.07, A2 = -3.2514.

* Finding Charts

* Magnitudes Graph

        m1 = 4.0 + 5 log d + 11.0 log r  [ ,0]  (             - 2013 Jan.  8)
        m1 = 8.5 + 5 log d + 11.0 log r  [0, ]  (2013 Jan.  8 -             )

        * Gray curve is:  m1 = 4.0 + 5 log d + 11.0 log r

---------------------------------------------------------------------

The orbital elements are published on M.P.E.C. 2013-G31.
The charts are made with StellaNavigator Ver.8 (AstroArts).
The magnitudes graphs are made with Comet for Windows.

---------------------------------------------------------------------

Copyright(C) Seiichi Yoshida (comet@aerith.net). All rights reserved.